#timestamp,LO_Frequency,Hit,Temp,Hum 
1480327215.3,286046911.0,N,0.0,0.0
1480327235.1,286046910.9,N,0.0,0.0
1480327255.9,286046910.2,N,0.0,0.0
1480327275.7,286046913.1,N,0.0,0.0
1480327295.5,286046912.1,N,0.0,0.0
1480327315.4,286046911.7,N,0.0,0.0
1480327335.2,286046911.7,N,0.0,0.0
1480327355.1,286046912.2,N,0.0,0.0
1480327356.0,286046912.2,N,0.0,0.0
1480327375.8,286046914.8,N,0.0,0.0
1480327395.6,286046914.0,N,0.0,0.0
1480327415.5,286046914.0,N,0.0,0.0
1480327435.3,286046913.4,N,0.0,0.0
1480327455.2,286046915.1,N,0.0,0.0
1480327475.9,286046915.0,N,0.0,0.0
1480327495.7,286046915.1,N,0.0,0.0
1480327515.6,286046913.4,N,0.0,0.0
1480327535.4,286046915.7,N,0.0,0.0
1480327555.2,286046916.2,N,0.0,0.0
1480327575.1,286046916.4,N,0.0,0.0
1480327576.0,286046916.4,N,0.0,0.0
1480327595.8,286046913.9,N,0.0,0.0
1480327615.7,286046914.5,N,0.0,0.0
1480327635.5,286046913.8,N,0.0,0.0
1480327655.3,286046916.1,N,0.0,0.0
1480327675.2,286046915.1,N,0.0,0.0
1480327695.0,286046917.9,N,0.0,0.0
1480327695.9,286046917.9,N,0.0,0.0
1480327715.8,286046914.9,N,0.0,0.0
1480327735.6,286046917.3,N,0.0,0.0
1480327755.4,286046916.8,N,0.0,0.0
1480327775.3,286046921.2,N,0.0,0.0
1480327795.1,286046918.3,N,0.0,0.0
1480327815.8,286046920.9,N,0.0,0.0
1480327835.7,286046919.8,N,0.0,0.0
1480327855.5,286046923.9,N,0.0,0.0
1480327875.4,286046925.6,N,0.0,0.0
1480327895.2,286046925.7,N,0.0,0.0
1480327915.0,286046923.6,N,0.0,0.0
1480327915.9,286046923.6,N,0.0,0.0
1480327935.8,286046924.0,N,0.0,0.0
1480327955.6,286046924.4,N,0.0,0.0
1480327975.4,286046924.1,N,0.0,0.0
1480327995.3,286046925.9,N,0.0,0.0
1480328015.1,286046925.4,N,0.0,0.0
1480328035.9,286046925.0,N,0.0,0.0
1480328055.7,286046925.5,N,0.0,0.0
1480328075.5,286046926.0,N,0.0,0.0
1480328095.4,286046925.8,N,0.0,0.0
1480328115.2,286046924.6,N,0.0,0.0
1480328135.0,286046926.8,N,0.0,0.0
1480328136.0,286046926.8,N,0.0,0.0
1480328155.8,286046927.5,N,0.0,0.0
1480328175.6,286046927.2,N,0.0,0.0
1480328195.5,286046925.6,N,0.0,0.0
1480328215.3,286046924.8,N,0.0,0.0
1480328235.1,286046926.0,N,0.0,0.0
1480328255.9,286046923.4,N,0.0,0.0
1480328275.7,286046923.3,N,0.0,0.0
1480328295.6,286046923.5,N,0.0,0.0
1480328315.4,286046923.6,N,0.0,0.0
1480328335.2,286046923.4,N,0.0,0.0
1480328355.1,286046925.5,N,0.0,0.0
1480328356.0,286046925.5,N,0.0,0.0
1480328375.8,286046927.6,N,0.0,0.0
1480328395.6,286046927.0,N,0.0,0.0
1480328415.5,286046925.7,N,0.0,0.0
1480328435.3,286046923.2,N,0.0,0.0
1480328455.2,286046924.3,N,0.0,0.0
1480328475.9,286046921.9,N,0.0,0.0
1480328495.7,286046921.6,N,0.0,0.0
1480328515.6,286046921.5,N,0.0,0.0
1480328535.4,286046921.5,N,0.0,0.0
1480328555.2,286046921.6,N,0.0,0.0
1480328575.1,286046922.4,N,0.0,0.0
1480328576.0,286046922.4,N,0.0,0.0
1480328595.8,286046922.4,N,0.0,0.0
1480328615.7,286046922.3,N,0.0,0.0
1480328635.5,286046924.0,N,0.0,0.0
1480328655.3,286046924.0,N,0.0,0.0
1480328675.2,286046923.2,N,0.0,0.0
1480328695.0,286046926.0,N,0.0,0.0
1480328695.9,286046926.0,N,0.0,0.0
1480328715.8,286046925.8,N,0.0,0.0
1480328735.6,286046926.0,N,0.0,0.0
1480328755.4,286046923.6,N,0.0,0.0
1480328775.3,286046921.3,N,0.0,0.0
1480328795.1,286046922.5,N,0.0,0.0
1480328815.8,286046920.1,N,0.0,0.0
1480328835.7,286046920.5,N,0.0,0.0
1480328855.5,286046921.1,N,0.0,0.0
1480328875.4,286046920.6,N,0.0,0.0
1480328895.2,286046920.8,N,0.0,0.0
1480328915.0,286046920.9,N,0.0,0.0
1480328915.9,286046920.9,N,0.0,0.0
1480328935.8,286046920.6,N,0.0,0.0
1480328955.6,286046920.8,N,0.0,0.0
1480328975.4,286046918.3,N,0.0,0.0
1480328995.3,286046918.3,N,0.0,0.0
1480329015.1,286046918.5,N,0.0,0.0
1480329035.9,286046918.8,N,0.0,0.0
1480329055.7,286046919.3,N,0.0,0.0
1480329075.5,286046919.3,N,0.0,0.0
1480329095.4,286046919.3,N,0.0,0.0
1480329115.2,286046918.9,N,0.0,0.0
1480329135.0,286046918.9,N,0.0,0.0
1480329136.0,286046918.9,N,0.0,0.0
1480329155.8,286046918.8,N,0.0,0.0
1480329175.6,286046918.4,N,0.0,0.0
1480329195.5,286046919.0,N,0.0,0.0
1480329215.3,286046919.0,N,0.0,0.0
1480329235.1,286046918.9,N,0.0,0.0
1480329255.9,286046919.3,N,0.0,0.0
1480329275.7,286046919.4,N,0.0,0.0
1480329295.6,286046919.4,N,0.0,0.0
1480329315.4,286046919.6,N,0.0,0.0
1480329335.2,286046917.0,N,0.0,0.0
1480329355.1,286046917.2,N,0.0,0.0
1480329356.0,286046917.2,N,0.0,0.0
1480329375.8,286046916.6,N,0.0,0.0
1480329395.6,286046919.1,N,0.0,0.0
1480329415.5,286046918.2,N,0.0,0.0
1480329435.3,286046921.2,N,0.0,0.0
1480329455.2,286046919.5,N,0.0,0.0
1480329475.9,286046917.1,N,0.0,0.0
1480329495.7,286046917.5,N,0.0,0.0
1480329515.6,286046914.9,N,0.0,0.0
1480329535.4,286046915.4,N,0.0,0.0
1480329555.3,286046915.6,N,0.0,0.0
1480329575.1,286046916.0,N,0.0,0.0
1480329576.0,286046916.0,N,0.0,0.0
1480329595.8,286046913.4,N,0.0,0.0
1480329615.7,286046913.7,N,0.0,0.0
1480329635.5,286046916.4,N,0.0,0.0
1480329655.3,286046914.0,N,0.0,0.0
1480329675.2,286046911.7,N,0.0,0.0
1480329695.0,286046912.1,N,0.0,0.0
1480329695.9,286046912.1,N,0.0,0.0
1480329715.8,286046914.8,N,0.0,0.0
1480329735.6,286046912.8,N,0.0,0.0
1480329755.4,286046910.6,N,0.0,0.0
1480329775.3,286046910.4,N,0.0,0.0
1480329795.1,286046910.4,N,0.0,0.0
1480329815.9,286046910.8,N,0.0,0.0
1480329835.7,286046910.9,N,0.0,0.0
1480329855.5,286046908.5,N,0.0,0.0
1480329875.4,286046909.2,N,0.0,0.0
1480329895.2,286046909.4,N,0.0,0.0
1480329915.0,286046909.1,N,0.0,0.0
1480329916.0,286046909.1,N,0.0,0.0
1480329935.8,286046909.4,N,0.0,0.0
1480329955.6,286046909.5,N,0.0,0.0
1480329975.5,286046907.4,N,0.0,0.0
1480329995.3,286046908.1,N,0.0,0.0
1480330015.1,286046908.2,N,0.0,0.0
1480330035.9,286046905.7,N,0.0,0.0
1480330055.7,286046906.5,N,0.0,0.0
1480330075.6,286046906.4,N,0.0,0.0
1480330095.4,286046903.9,N,0.0,0.0
1480330115.2,286046904.4,N,0.0,0.0
1480330135.1,286046906.6,N,0.0,0.0
1480330136.0,286046906.6,N,0.0,0.0
1480330155.8,286046906.2,N,0.0,0.0
1480330175.6,286046906.2,N,0.0,0.0
1480330195.5,286046906.4,N,0.0,0.0
1480330215.3,286046906.7,N,0.0,0.0
1480330235.2,286046906.4,N,0.0,0.0
1480330255.9,286046904.6,N,0.0,0.0
1480330275.7,286046904.9,N,0.0,0.0
1480330295.6,286046904.5,N,0.0,0.0
1480330315.4,286046904.7,N,0.0,0.0
1480330335.2,286046902.5,N,0.0,0.0
1480330355.1,286046902.4,N,0.0,0.0
1480330356.0,286046902.4,N,0.0,0.0
1480330375.8,286046902.5,N,0.0,0.0
1480330395.7,286046902.6,N,0.0,0.0
1480330415.5,286046902.3,N,0.0,0.0
1480330435.3,286046902.5,N,0.0,0.0
1480330455.2,286046903.3,N,0.0,0.0
1480330475.0,286046900.6,N,0.0,0.0
1480330475.9,286046900.6,N,0.0,0.0
1480330495.8,286046903.5,N,0.0,0.0
1480330515.6,286046901.9,N,0.0,0.0
1480330535.4,286046899.2,N,0.0,0.0
1480330555.3,286046900.2,N,0.0,0.0
1480330575.1,286046897.7,N,0.0,0.0
1480330595.8,286046897.6,N,0.0,0.0
1480330615.7,286046898.6,N,0.0,0.0
1480330635.5,286046898.4,N,0.0,0.0
1480330655.4,286046898.5,N,0.0,0.0
1480330675.2,286046898.8,N,0.0,0.0
1480330695.0,286046896.2,N,0.0,0.0
1480330695.9,286046896.2,N,0.0,0.0
1480330715.8,286046896.1,N,0.0,0.0
1480330735.6,286046895.9,N,0.0,0.0
1480330755.5,286046896.3,N,0.0,0.0
1480330775.3,286046896.3,N,0.0,0.0
1480330795.1,286046896.0,N,0.0,0.0
